KB2FWP Weather Reports


time (UTC)temp
C
wind
direction
speed
KPH
gust
KPH
rain 1hr
cm
rain 24hr
cm
rain mn
cm
humidity
%
barometer
mb
20260506044522 13 243 22.5 45.1 0.00 0.00 0.00 88 1012.7
20260506043017 13 192 22.5 41.8 0.00 0.00 0.00 88 1012.8
20260506041514 13 210 19.3 51.5 0.00 0.00 0.00 88 1012.8
20260506040014 13 235 19.3 40.2 0.00 0.00 0.00 87 1012.8
20260506034511 13 212 24.1 40.2 0.00 0.00 0.00 86 1012.8
20260506033008 13 189 24.1 45.1 0.00 0.00 0.00 86 1012.8
20260506031513 13 171 22.5 37.0 0.00 0.00 0.00 86 1012.7
20260506030007 13 210 20.9 37.0 0.00 0.00 0.00 86 1012.9
20260506024504 13 174 22.5 40.2 0.00 0.00 0.00 86 1013.0
20260506023002 13 195 19.3 40.2 0.00 0.00 0.00 86 1012.9
20260506021502 13 194 19.3 38.6 0.00 0.00 0.00 87 1013.1
20260506020100 13 237 17.7 40.2 0.00 0.00 0.00 86 1012.9
20260506014602 14 179 24.1 43.5 0.00 0.00 0.00 85 1012.9
20260506013101 14 198 24.1 40.2 0.00 0.00 0.00 84 1012.7
20260506011559 14 192 27.4 46.7 0.00 0.00 0.00 84 1012.6
20260506010059 15 189 22.5 38.6 0.00 0.00 0.00 83 1012.6
20260506004625 15 206 22.5 41.8 0.00 0.00 0.00 82 1012.5
20260506003056 15 184 25.7 38.6 0.00 0.00 0.00 82 1012.4
20260506001553 15 232 27.4 40.2 0.00 0.00 0.00 81 1012.1
20260506000053 15 200 27.4 41.8 0.00 0.00 0.00 82 1011.9
20260505234612 15 185 25.7 49.9 0.00 0.00 0.00 82 1011.5
20260505233051 15 186 27.4 51.5 0.00 0.00 0.00 82 1011.3
20260505231551 15 225 27.4 53.1 0.00 0.00 0.00 82 1011.2
20260505230051 15 202 24.1 45.1 0.00 0.00 0.00 82 1010.9
20260505224549 15 191 25.7 49.9 0.00 0.00 0.00 81 1010.8
20260505223059 15 185 30.6 48.3 0.00 0.00 0.00 82 1010.7
20260505221558 15 179 20.9 51.5 0.00 0.00 0.00 81 1010.8
20260505220057 15 206 25.7 51.5 0.00 0.00 0.00 80 1010.6
20260505214603 15 203 27.4 49.9 0.00 0.00 0.00 80 1010.6
20260505213047 16 201 24.1 41.8 0.00 0.00 0.00 80 1010.4
20260505211544 16 218 24.1 43.5 0.00 0.00 0.00 80 1010.2
20260505210044 15 200 29.0 46.7 0.00 0.00 0.00 80 1010.2
20260505204544 15 186 24.1 40.2 0.00 0.00 0.00 81 1010.2
20260505203044 15 198 25.7 45.1 0.00 0.00 0.00 81 1010.2
20260505201540 15 187 24.1 45.1 0.00 0.00 0.00 81 1010.4
20260505200045 15 206 19.3 41.8 0.00 0.00 0.00 81 1010.5
20260505194539 16 184 22.5 37.0 0.00 0.00 0.00 81 1010.6
20260505193036 16 184 19.3 33.8 0.00 0.00 0.00 81 1011.0
20260505191535 16 186 16.1 37.0 0.00 0.00 0.00 80 1011.1
20260505190037 16 226 24.1 37.0 0.00 0.00 0.00 80 1011.3
20260505184532 16 181 19.3 32.2 0.00 0.00 0.00 81 1011.7
20260505183042 16 235 12.9 30.6 0.00 0.00 0.00 80 1011.9
20260505181529 16 237 11.3 20.9 0.00 0.00 0.00 80 1012.1
20260505180029 17 231 8.0 17.7 0.00 0.00 0.00 78 1012.3
20260505174526 16 212 8.0 16.1 0.00 0.00 0.00 80 1012.5
20260505173024 16 180 9.7 22.5 0.00 0.00 0.00 81 1012.5
20260505171524 16 189 9.7 22.5 0.00 0.00 0.00 81 1012.6
20260505170024 15 230 6.4 25.7 0.00 0.00 0.00 84 1012.7
20260505164523 15 196 12.9 24.1 0.00 0.00 0.00 81 1012.9
20260505163021 15 192 9.7 16.1 0.00 0.00 0.00 82 1012.9
20260505161620 16 182 11.3 24.1 0.00 0.00 0.00 81 1013.0
20260505153018 16 183 6.4 14.5 0.00 0.00 0.00 82 1013.2
20260505151516 15 214 11.3 19.3 0.00 0.00 0.00 83 1013.5
20260505124604 13 196 9.7 16.1 0.00 0.00 0.00 90 1013.2
20260505123057 13 215 8.0 17.7 0.00 0.00 0.00 90 1013.2
20260505121555 13 195 8.0 16.1 0.00 0.00 0.00 91 1013.0
20260505120058 12 195 6.4 14.5 0.00 0.00 0.00 91 1013.2
20260505114552 12 213 8.0 12.9 0.00 0.00 0.00 92 1013.3
20260505113054 12 194 3.2 9.7 0.00 0.00 0.00 92 1013.2
20260505111550 12 202 4.8 14.5 0.00 0.00 0.00 93 1013.2
20260505101545 11 186 6.4 16.1 0.00 0.00 0.00 93 1012.3
20260505100042 11 203 4.8 16.1 0.00 0.00 0.00 93 1012.1
20260505094542 11 179 6.4 14.5 0.00 0.00 0.00 93 1012.1
20260505093040 11 194 4.8 12.9 0.00 0.00 0.00 93 1012.1
20260505091539 11 185 6.4 11.3 0.00 0.00 0.00 93 1012.1
20260505090038 11 234 4.8 12.9 0.00 0.00 0.00 92 1012.0
20260505084544 11 194 4.8 12.9 0.00 0.00 0.00 92 1012.0
20260505083036 11 204 8.0 14.5 0.00 0.00 0.00 92 1012.1
20260505081533 11 214 8.0 14.5 0.00 0.00 0.00 92 1012.2
20260505080035 11 202 8.0 16.1 0.00 0.00 0.00 91 1012.2
20260505074534 11 195 8.0 16.1 0.00 0.00 0.00 91 1012.2
20260505073038 11 196 6.4 12.9 0.00 0.00 0.00 91 1012.2
20260505071526 11 198 8.0 16.1 0.00 0.00 0.00 91 1012.2
20260505070036 11 208 12.9 17.7 0.00 0.00 0.00 91 1012.1
20260505064521 11 217 11.3 19.3 0.00 0.00 0.00 91 1012.2
20260505063016 11 213 9.7 14.5 0.00 0.00 0.00 91 1012.3
20260505061520 11 200 8.0 16.1 0.00 0.00 0.00 91 1012.4
20260505060013 11 212 6.4 16.1 0.00 0.00 0.00 91 1012.6
20260505054511 11 236 4.8 11.3 0.00 0.00 0.00 90 1012.7